Date String (YYYY-MM-DD hh:mm:ss) UTC,Instrument flags,absolute air pressure of the measurement (hPa),sample flow rate (lpm),inlet stack bypass flow (lpm),air temperature of the measurement (°C),ambient temperature measured by the external sensor (°C),aerosol sample conditioner tube jacket temperature (°C),OPC LED temperature (°C),internal box temperature (°C),relative humidity of the measurement (%),span deviation,mass concentration of particles derived from Lorenz-Mie calculation of OPC scattering (μg/m³),mass concentration of particles derived from Lorenz-Mie calculation of OPC scattering (μg/m³),mass concentration of particles derived from Lorenz-Mie calculation of OPC scattering (μg/m³)
DateTimeUTC,F1_M11,P_M11,Q1_M11,Q2_M11,T1_M11,T2_M11,T3_M11,T4_M11,T5_M11,U1_M11,ZSPAN_M11,X0_M11,X2_M11,X1_M11
2024-06-11 17:00:00,SystemResetWarning,0831.6,5.01,000.00,029.0,027.7,000.0,037.5,030.7,035.6,0000.0,0012.77,0006.53,0005.71
2024-06-11 17:01:00,SystemResetWarning,0831.6,5.00,000.00,029.1,027.9,000.0,037.5,030.8,035.0,0000.0,0012.86,0006.50,0005.71
2024-06-11 17:02:00,SystemResetWarning,0831.6,4.99,000.00,029.1,028.2,000.0,037.5,030.9,034.2,0000.0,0013.43,0006.57,0005.72
2024-06-11 17:03:00,SystemResetWarning,0831.7,4.99,000.00,029.2,028.4,000.0,037.5,031.0,034.7,0000.0,0012.88,0006.57,0005.72
2024-06-11 17:04:00,SystemResetWarning,0831.6,4.99,000.00,029.3,028.6,000.0,037.5,031.1,034.4,0000.0,0013.01,0006.63,0005.73
2024-06-11 17:05:00,SystemResetWarning,0831.6,5.01,000.00,029.3,028.8,000.0,037.5,031.1,034.2,0000.0,0013.40,0006.58,0005.70
2024-06-11 17:06:00,SystemResetWarning,0831.6,5.01,000.00,029.4,028.9,000.0,037.6,031.2,034.5,0000.0,0013.55,0006.53,0005.68
2024-06-11 17:07:00,SystemResetWarning,0831.6,5.01,000.00,029.5,029.0,000.0,037.6,031.3,034.5,0000.0,0013.21,0006.53,0005.67
2024-06-11 17:08:00,SystemResetWarning,0831.6,5.00,000.00,029.5,029.1,000.0,037.6,031.4,033.9,0000.0,0013.53,0006.53,0005.66
2024-06-11 17:09:00,SystemResetWarning,0831.6,5.00,000.00,029.6,029.2,000.0,037.7,031.4,034.2,0000.0,0014.95,0006.57,0005.66
2024-06-11 17:10:00,SystemResetWarning,0831.6,5.00,000.00,029.6,029.0,000.0,037.7,031.3,034.6,0000.0,0015.34,0006.56,0005.66
2024-06-11 17:11:00,SystemResetWarning,0831.5,4.99,000.00,029.4,027.3,000.0,037.8,030.4,034.3,0000.0,0015.51,0006.59,0005.65
2024-06-11 17:12:00,SystemResetWarning,0831.4,5.02,000.00,029.1,026.0,000.0,037.8,029.8,034.6,0000.0,0015.42,0006.58,0005.63
2024-06-11 17:13:00,SystemResetWarning,0831.5,5.01,000.00,028.9,026.1,000.0,037.8,029.8,036.1,0000.0,0014.56,0006.55,0005.62
2024-06-11 17:14:00,SystemResetWarning,0831.4,5.00,000.00,028.8,026.5,000.0,037.6,030.0,036.5,0000.0,0015.17,0006.53,0005.62
2024-06-11 17:15:00,SystemResetWarning,0831.5,5.00,000.00,028.9,026.9,000.0,037.5,030.3,035.3,0000.0,0015.29,0006.49,0005.60
2024-06-11 17:16:00,SystemResetWarning,0831.5,5.00,000.00,028.9,027.3,000.0,037.5,030.5,035.1,0000.0,0015.34,0006.53,0005.61
2024-06-11 17:17:00,SystemResetWarning,0831.6,5.01,000.00,028.9,027.7,000.0,037.5,030.6,035.0,0000.0,0015.51,0006.60,0005.61
2024-06-11 17:18:00,SystemResetWarning,0831.6,5.00,000.00,029.0,027.9,000.0,037.5,030.8,034.7,0000.0,0015.21,0006.60,0005.61
2024-06-11 17:19:00,SystemResetWarning,0831.5,5.00,000.00,029.1,028.2,000.0,037.4,030.9,035.0,0000.0,0015.27,0006.57,0005.61
2024-06-11 17:20:00,SystemResetWarning,0831.5,5.00,000.00,029.1,028.4,000.0,037.4,031.0,034.9,0000.0,0013.67,0006.50,0005.59
2024-06-11 17:21:00,SystemResetWarning,0831.5,5.00,000.00,029.2,028.6,000.0,037.5,031.0,035.1,0000.0,0012.64,0006.46,0005.56
2024-06-11 17:22:00,SystemResetWarning,0831.5,4.99,000.00,029.3,028.7,000.0,037.5,031.2,034.0,0000.0,0012.78,0006.47,0005.56
2024-06-11 17:23:00,SystemResetWarning,0831.5,4.99,000.00,029.4,028.8,000.0,037.5,031.2,034.3,0000.0,0013.47,0006.51,0005.56
2024-06-11 17:24:00,SystemResetWarning,0831.5,5.01,000.00,029.4,029.0,000.0,037.6,031.3,034.7,0000.0,0013.91,0006.50,0005.57
2024-06-11 17:25:00,SystemResetWarning,0831.6,5.01,000.00,029.5,029.1,000.0,037.6,031.3,034.9,0000.0,0013.37,0006.53,0005.58
2024-06-11 17:26:00,SystemResetWarning,0831.6,5.01,000.00,029.6,029.1,000.0,037.6,031.4,035.2,0000.0,0013.47,0006.55,0005.59
2024-06-11 17:27:00,SystemResetWarning,0831.5,4.99,000.00,029.5,028.3,000.0,037.7,030.9,034.4,0000.0,0013.19,0006.54,0005.59
2024-06-11 17:28:00,SystemResetWarning,0831.4,4.99,000.00,029.2,026.4,000.0,037.7,030.1,035.4,0000.0,0013.05,0006.59,0005.61
2024-06-11 17:29:00,SystemResetWarning,0831.4,5.01,000.00,028.9,025.9,000.0,037.7,029.7,035.5,0000.0,0014.24,0006.66,0005.63
2024-06-11 17:30:00,SystemResetWarning,0831.5,5.01,000.00,028.8,026.1,000.0,037.6,029.8,035.8,0000.0,0015.00,0006.71,0005.65
2024-06-11 17:31:00,SystemResetWarning,0831.5,4.99,000.00,028.8,026.6,000.0,037.5,030.1,035.7,0000.0,0017.09,0006.77,0005.68
2024-06-11 17:32:00,SystemResetWarning,0831.5,5.00,000.00,028.8,027.0,000.0,037.4,030.3,035.8,0000.0,0018.43,0006.77,0005.68
2024-06-11 17:33:00,SystemResetWarning,0831.5,5.00,000.00,028.8,027.4,000.0,037.4,030.5,035.0,0000.0,0019.18,0006.79,0005.71
2024-06-11 17:34:00,SystemResetWarning,0831.5,5.00,000.00,028.9,027.7,000.0,037.4,030.6,034.9,0000.0,0019.31,0006.77,0005.71
2024-06-11 17:35:00,SystemResetWarning,0831.4,4.99,000.00,029.0,028.0,000.0,037.4,030.8,035.3,0000.0,0018.93,0006.78,0005.73
2024-06-11 17:36:00,SystemResetWarning,0831.4,5.00,000.00,029.0,028.2,000.0,037.4,030.9,034.8,0000.0,0019.13,0006.82,0005.75
2024-06-11 17:37:00,SystemResetWarning,0831.5,5.01,000.00,029.1,028.4,000.0,037.4,031.0,034.2,0000.0,0019.50,0006.87,0005.76
2024-06-11 17:38:00,SystemResetWarning,0831.5,4.99,000.00,029.2,028.6,000.0,037.4,031.0,034.0,0000.0,0019.77,0006.94,0005.78
2024-06-11 17:39:00,SystemResetWarning,0831.5,4.99,000.00,029.3,028.7,000.0,037.4,031.1,034.2,0000.0,0019.83,0006.88,0005.78
2024-06-11 17:40:00,SystemResetWarning,0831.5,5.01,000.00,029.3,028.9,000.0,037.5,031.2,034.8,0000.0,0018.66,0006.81,0005.77
2024-06-11 17:41:00,SystemResetWarning,0831.4,5.01,000.00,029.4,029.0,000.0,037.5,031.3,034.4,0000.0,0017.94,0006.85,0005.76
2024-06-11 17:42:00,SystemResetWarning,0831.5,5.00,000.00,029.5,029.1,000.0,037.5,031.3,033.9,0000.0,0016.08,0006.84,0005.77
2024-06-11 17:43:00,SystemResetWarning,0831.4,4.98,000.00,029.4,028.2,000.0,037.6,030.9,033.9,0000.0,0015.57,0006.90,0005.78
2024-06-11 17:44:00,SystemResetWarning,0831.4,5.01,000.00,029.1,026.3,000.0,037.7,030.0,034.6,0000.0,0015.16,0006.87,0005.79
2024-06-11 17:45:00,SystemResetWarning,0831.4,5.01,000.00,028.8,025.8,000.0,037.6,029.6,035.8,0000.0,0014.84,0006.93,0005.81
2024-06-11 17:46:00,SystemResetWarning,0831.3,5.00,000.00,028.7,026.1,000.0,037.5,029.7,035.6,0000.0,0015.47,0007.01,0005.84
2024-06-11 17:47:00,SystemResetWarning,0831.3,5.00,000.00,028.7,026.5,000.0,037.4,030.0,035.7,0000.0,0016.37,0007.05,0005.85
2024-06-11 17:48:00,SystemResetWarning,0831.4,5.00,000.00,028.7,027.0,000.0,037.4,030.2,036.7,0000.0,0016.35,0007.07,0005.87
2024-06-11 17:49:00,SystemResetWarning,0831.4,5.00,000.00,028.8,027.4,000.0,037.3,030.4,036.0,0000.0,0015.98,0007.06,0005.87
2024-06-11 17:50:00,SystemResetWarning,0831.4,5.00,000.00,028.8,027.7,000.0,037.3,030.6,036.2,0000.0,0015.79,0007.10,0005.90
2024-06-11 17:51:00,SystemResetWarning,0831.4,5.00,000.00,028.9,027.9,000.0,037.3,030.7,036.9,0000.0,0015.82,0007.15,0005.92
2024-06-11 17:52:00,SystemResetWarning,0831.4,5.00,000.00,029.0,028.2,000.0,037.3,030.8,036.2,0000.0,0016.10,0007.13,0005.93
2024-06-11 17:53:00,SystemResetWarning,0831.4,5.00,000.00,029.1,028.4,000.0,037.3,030.9,035.7,0000.0,0017.55,0007.14,0005.94
2024-06-11 17:54:00,SystemResetWarning,0831.4,5.00,000.00,029.1,028.5,000.0,037.4,031.0,035.5,0000.0,0016.80,0007.18,0005.96
2024-06-11 17:55:00,SystemResetWarning,0831.4,5.00,000.00,029.2,028.7,000.0,037.4,031.1,035.1,0000.0,0017.00,0007.26,0005.98
2024-06-11 17:56:00,SystemResetWarning,0831.4,4.99,000.00,029.3,028.8,000.0,037.4,031.2,035.0,0000.0,0016.92,0007.25,0005.99
2024-06-11 17:57:00,SystemResetWarning,0831.4,5.01,000.00,029.3,028.9,000.0,037.5,031.3,034.8,0000.0,0018.09,0007.23,0005.99
2024-06-11 17:58:00,SystemResetWarning,0831.4,5.00,000.00,029.4,029.0,000.0,037.5,031.3,034.8,0000.0,0017.27,0007.19,0005.99
2024-06-11 17:59:00,SystemResetWarning,0831.3,5.00,000.00,029.5,029.0,000.0,037.6,031.3,034.5,0000.0,0017.15,0007.20,0006.00
